Stations météo

réclame
Mon MeteoGroup
Jerez De La Frontera aeropuert, Espagne (8451): Température de l'air & dewpoint: 01.08.2020 22:00:00 - 07.08.2020 22:00:00 (CEST)Jerez De La Frontera aeropuert, Espagne (8451): Vitesse du vent: 01.08.2020 22:00:00 - 07.08.2020 22:00:00 (CEST)Jerez De La Frontera aeropuert, Espagne (8451): Direction du vent: 01.08.2020 22:00:00 - 07.08.2020 22:00:00 (CEST)Jerez De La Frontera aeropuert, Espagne (8451): reduced air pressure: 01.08.2020 22:00:00 - 07.08.2020 22:00:00 (CEST)Jerez De La Frontera aeropuert, Espagne (8451): visibility: 01.08.2020 22:00:00 - 07.08.2020 22:00:00 (CEST)
Date & Time tt [°C] td [°C] ff [km/h] ff [knt] dd ppp [hPa] vv [km]
07.08.2020 22:00:00 24,8 20,9 9 5 W 1016,5 10
07.08.2020 21:00:00 26,5 21,3 11 6 W 1015,6 10
07.08.2020 20:00:00 28,9 21,4 13 7 W 1015,3 10
07.08.2020 19:00:00 31,8 19,6 13 7 WSW 1015,2 10
07.08.2020 18:00:00 31,5 20,7 15 8 SW 1015,6 10
07.08.2020 17:00:00 31,0 21,7 21 11 SW 1015,9 10
07.08.2020 16:00:00 31,3 22,0 22 12 WSW 1016,3 10
07.08.2020 15:00:00 32,1 21,5 21 11 SW 1016,7 10
07.08.2020 14:00:00 32,0 21,7 18 10 WSW 1016,8 10
07.08.2020 13:00:00 32,6 18,7 11 6 - 1016,7 10
07.08.2020 12:00:00 31,2 17,4 9 5 SE 1016,9 10
07.08.2020 11:00:00 28,9 18,3 13 7 SSE 1016,9 10
07.08.2020 10:00:00 26,8 18,1 5 3 S 1016,7 10
07.08.2020 09:00:00 22,3 17,6 0 0 N 1016,6 10
07.08.2020 08:00:00 18,8 16,8 0 0 N 1015,8 10
07.08.2020 07:00:00 19,2 16,4 2 1 - 1015,4 10
07.08.2020 06:00:00 20,3 16,3 2 1 - 1015,0 10
07.08.2020 05:00:00 20,7 17,4 0 0 N 1014,8 10
07.08.2020 04:00:00 21,5 17,0 8 4 NNW 1014,5 10
07.08.2020 03:00:00 22,1 17,9 9 5 N 1014,6 10
07.08.2020 02:00:00 23,1 18,5 5 3 N 1014,4 10
07.08.2020 01:00:00 24,7 13,6 5 3 E 1014,3 10
07.08.2020 00:00:00 26,3 11,3 5 3 S 1013,8 10
06.08.2020 23:00:00 27,2 10,0 4 2 - 1012,9 10
06.08.2020 22:00:00 29,0 10,2 11 6 SE 1012,1 10
06.08.2020 21:00:00 31,4 10,1 15 8 SSE 1011,3 10
06.08.2020 20:00:00 33,8 12,1 11 6 - 1010,6 10
06.08.2020 19:00:00 35,2 20,7 16 9 W 1010,1 10
06.08.2020 18:00:00 37,6 13,7 16 9 ESE 1009,5 10
06.08.2020 17:00:00 37,5 16,6 13 7 E 1009,7 10
06.08.2020 16:00:00 37,3 15,4 15 8 E 1010,2 10
06.08.2020 15:00:00 38,3 15,2 11 6 SSW 1010,6 10
06.08.2020 14:00:00 37,1 14,5 5 3 - 1011,0 10
06.08.2020 13:00:00 36,0 14,2 11 6 SSW 1011,1 10
06.08.2020 12:00:00 33,8 13,3 4 2 - 1011,4 10
06.08.2020 11:00:00 31,9 13,5 4 2 - 1011,6 10
06.08.2020 10:00:00 27,6 15,2 2 1 - 1011,6 10
06.08.2020 09:00:00 21,9 18,2 0 0 N 1011,1 10
06.08.2020 08:00:00 18,7 16,3 5 3 N 1010,8 10
06.08.2020 07:00:00 18,9 17,0 0 0 N 1010,8 10
06.08.2020 06:00:00 19,6 17,0 0 0 N 1010,7 10
06.08.2020 05:00:00 20,9 19,0 5 3 SSE 1010,6 10
06.08.2020 04:00:00 21,6 20,1 2 1 - 1010,5 10
06.08.2020 03:00:00 22,0 19,5 11 6 NNW 1010,6 10
06.08.2020 02:00:00 22,1 19,7 11 6 NNW 1011,0 10
06.08.2020 01:00:00 24,3 21,2 9 5 WNW 1010,8 10
06.08.2020 00:00:00 25,7 21,1 9 5 W 1010,5 10
05.08.2020 23:00:00 26,9 19,6 4 2 - 1010,1 10
05.08.2020 22:00:00 29,7 20,8 5 3 - 1009,1 10
05.08.2020 21:00:00 32,4 21,0 11 6 WNW 1008,4 10
05.08.2020 20:00:00 36,5 16,1 5 3 S 1008,1 10
05.08.2020 19:00:00 37,8 16,7 9 5 S 1008,2 10
05.08.2020 18:00:00 38,2 17,6 11 6 SSE 1008,2 10
05.08.2020 17:00:00 38,3 16,7 5 3 - 1008,4 10
05.08.2020 16:00:00 38,0 16,7 9 5 ENE 1008,8 10
05.08.2020 15:00:00 36,7 17,3 9 5 SE 1009,3 10
05.08.2020 14:00:00 35,9 17,7 9 5 - 1010,0 10
05.08.2020 13:00:00 34,5 18,6 18 10 ESE 1010,5 10
05.08.2020 12:00:00 32,9 17,9 9 5 E 1010,9 10
05.08.2020 11:00:00 30,7 19,4 5 3 ESE 1011,2 10
05.08.2020 10:00:00 27,8 20,0 2 1 - 1011,5 10
05.08.2020 09:00:00 22,7 19,1 0 0 N 1011,3 10
05.08.2020 08:00:00 19,5 18,2 0 0 N 1011,0 10
05.08.2020 07:00:00 19,6 18,3 0 0 N 1010,8 10
05.08.2020 06:00:00 20,0 18,4 0 0 N 1010,6 10
05.08.2020 05:00:00 20,4 18,3 0 0 N 1010,9 10
05.08.2020 04:00:00 21,6 18,8 5 3 NNW 1010,9 10
05.08.2020 03:00:00 21,8 19,0 5 3 N 1011,3 10
05.08.2020 02:00:00 22,6 18,8 4 2 N 1011,6 10
05.08.2020 01:00:00 23,1 18,8 4 2 - 1011,6 10
05.08.2020 00:00:00 24,5 19,7 0 0 N 1011,2 10
04.08.2020 23:00:00 26,3 19,9 5 3 W 1011,3 10
04.08.2020 22:00:00 28,0 20,0 8 4 W 1010,8 10
04.08.2020 21:00:00 30,3 20,3 9 5 W 1010,2 10
04.08.2020 20:00:00 32,1 21,0 5 3 WNW 1010,1 10
04.08.2020 19:00:00 32,0 21,2 13 7 WNW 1010,5 10
04.08.2020 18:00:00 33,0 21,2 15 8 SW 1010,6 10
04.08.2020 17:00:00 34,0 21,4 16 9 SW 1010,8 10
04.08.2020 16:00:00 33,2 21,3 11 6 SW 1011,3 10
04.08.2020 15:00:00 32,1 21,1 11 6 - 1012,0 10
04.08.2020 14:00:00 31,3 21,4 15 8 SW 1012,5 10
04.08.2020 13:00:00 30,8 21,5 18 10 SW 1012,7 10
04.08.2020 12:00:00 29,4 21,7 15 8 S 1012,9 10
04.08.2020 11:00:00 26,7 21,5 21 11 S 1012,8 10
04.08.2020 10:00:00 24,7 21,4 15 8 S 1012,9 10
04.08.2020 09:00:00 23,5 21,5 13 7 S 1012,6 10
04.08.2020 08:00:00 22,3 20,8 9 5 SSE 1012,3 10
04.08.2020 07:00:00 22,1 20,6 5 3 SSE 1012,0 10
04.08.2020 06:00:00 22,4 20,7 9 5 SSE 1012,0 10
04.08.2020 05:00:00 22,0 20,8 9 5 SSE 1012,1 10
04.08.2020 04:00:00 21,5 20,0 5 3 SSE 1012,2 10
04.08.2020 03:00:00 21,4 19,0 5 3 SSE 1012,6 10
04.08.2020 02:00:00 21,9 18,9 5 3 S 1012,8 10
04.08.2020 01:00:00 22,3 19,1 8 4 SSE 1012,7 10
04.08.2020 00:00:00 22,7 18,9 8 4 S 1012,9 10
03.08.2020 23:00:00 23,4 19,8 9 5 SSE 1012,6 10
03.08.2020 22:00:00 24,4 20,1 15 8 S 1012,1 10
03.08.2020 21:00:00 26,6 18,6 16 9 S 1012,0 10
03.08.2020 20:00:00 28,7 15,9 16 9 S 1012,0 10
03.08.2020 19:00:00 29,9 13,8 22 12 SSW 1012,3 10
03.08.2020 18:00:00 32,3 14,4 21 11 SW 1012,3 10
03.08.2020 17:00:00 32,7 13,7 21 11 SW 1012,5 10
03.08.2020 16:00:00 32,2 14,2 18 10 SW 1013,1 10
03.08.2020 15:00:00 32,1 15,3 26 14 SSW 1013,6 10
03.08.2020 14:00:00 32,1 13,6 9 5 SSW 1014,1 50
03.08.2020 13:00:00 29,9 13,6 5 3 - 1014,7 10
03.08.2020 12:00:00 27,5 12,0 5 3 - 1015,1 10
03.08.2020 11:00:00 25,2 12,4 5 3 W 1015,3 10
03.08.2020 10:00:00 23,8 12,4 4 2 - 1015,3 10
03.08.2020 09:00:00 21,0 13,0 2 1 - 1015,0 10
03.08.2020 08:00:00 18,2 16,0 4 2 W 1015,0 50
03.08.2020 07:00:00 18,7 18,0 2 1 - 1014,6 10
03.08.2020 06:00:00 19,5 18,5 8 4 SW 1014,9 10
03.08.2020 05:00:00 19,1 18,1 4 2 - 1014,4 10
03.08.2020 04:00:00 19,8 18,5 5 3 SSW 1015,3 10
03.08.2020 03:00:00 20,2 18,3 8 4 S 1015,3 10
03.08.2020 02:00:00 20,6 17,8 5 3 S 1015,6 10
03.08.2020 01:00:00 21,4 17,8 5 3 SSE 1015,8 10
03.08.2020 00:00:00 22,2 18,0 8 4 SSE 1015,8 10
02.08.2020 23:00:00 23,1 16,7 8 4 S 1015,4 10
02.08.2020 22:00:00 25,1 15,6 13 7 SW 1014,8 10
02.08.2020 21:00:00 27,7 16,6 18 10 SW 1014,4 10
02.08.2020 20:00:00 30,6 16,3 24 13 WSW 1014,2 10
02.08.2020 19:00:00 33,8 11,8 21 11 WSW 1014,1 10
02.08.2020 18:00:00 35,3 11,7 21 11 WSW 1014,2 10
02.08.2020 17:00:00 35,6 13,3 22 12 WSW 1014,5 60
02.08.2020 16:00:00 36,4 14,1 21 11 WSW 1014,8 10
02.08.2020 15:00:00 38,0 14,6 13 7 SW 1014,8 10
02.08.2020 14:00:00 36,7 13,2 9 5 SW 1015,3 10
02.08.2020 13:00:00 34,8 16,2 4 2 - 1015,8 10
02.08.2020 12:00:00 32,4 16,8 8 4 N 1016,1 10
02.08.2020 11:00:00 29,4 16,8 9 5 NW 1016,1 10
02.08.2020 10:00:00 26,7 16,6 11 6 NW 1015,8 10
02.08.2020 09:00:00 22,7 17,2 4 2 - 1016,1 10
02.08.2020 08:00:00 19,2 16,8 9 5 N 1015,5 10
02.08.2020 07:00:00 19,4 16,0 0 0 N 1015,7 10
02.08.2020 06:00:00 19,6 16,5 0 0 N 1015,3 10
02.08.2020 05:00:00 20,5 16,3 0 0 N 1015,4 10
02.08.2020 04:00:00 20,9 17,1 0 0 N 1015,3 10
02.08.2020 03:00:00 21,2 16,4 2 1 - 1015,5 10
02.08.2020 02:00:00 22,3 16,4 0 0 N 1015,9 10
02.08.2020 01:00:00 23,2 17,4 2 1 - 1016,2 10
02.08.2020 00:00:00 24,5 16,7 5 3 SE 1016,3 10
01.08.2020 23:00:00 26,8 15,8 4 2 - 1015,9 10
01.08.2020 22:00:00 28,5 16,4 13 7 WNW 1015,2 10

tt = Température de l'air
td = dewpoint
ff = Vitesse du vent
dd = Direction du vent
ppp = reduced air pressure
vv = visibility

stations d'obs. à proximité